Weather reports worldwide

Advertisment
Leuchars, United Kingdom (3171): temperature & dewpoint: 23.05.2020 14:00:00 - 29.05.2020 14:00:00 (BST)Leuchars, United Kingdom (3171): temperature -20cm & temperature -100cm: 23.05.2020 14:00:00 - 29.05.2020 14:00:00 (BST)Leuchars, United Kingdom (3171): wind speed & gusts: 23.05.2020 14:00:00 - 29.05.2020 14:00:00 (BST)Leuchars, United Kingdom (3171): wind direction: 23.05.2020 14:00:00 - 29.05.2020 14:00:00 (BST)Leuchars, United Kingdom (3171): reduced air pressure: 23.05.2020 14:00:00 - 29.05.2020 14:00:00 (BST)Leuchars, United Kingdom (3171): visibility: 23.05.2020 14:00:00 - 29.05.2020 14:00:00 (BST)Leuchars, United Kingdom (3171): sunshine duration: 23.05.2020 14:00:00 - 29.05.2020 14:00:00 (BST)Leuchars, United Kingdom (3171): precipitation: 23.05.2020 14:00:00 - 29.05.2020 14:00:00 (BST)
Date & Time tt [°C] td [°C] tt -20cm [°C] tt -100cm [°C] ff [km/h] ff [kn] fx [km/h] fx [kn] dd ppp [hPa] vv [km] sd [min] rr [mm]
29.05.2020 14:00:00 20,4 12,1 - - 22 12 - - E 1026,6 10 60 0,0
29.05.2020 13:00:00 17,9 10,9 - - 18 10 - - E 1027,1 25 60 0,0
29.05.2020 12:00:00 17,7 10,9 - - 16 9 - - E 1027,6 23 60 0,0
29.05.2020 11:00:00 17,0 10,7 - - 15 8 - - ESE 1028,1 20 60 0,0
29.05.2020 10:00:00 19,3 11,2 13,2 11,0 8 4 - - SE 1028,3 10 60 0,0
29.05.2020 09:00:00 16,2 10,6 - - 5 3 - - SE 1028,6 10 60 0,0
29.05.2020 08:00:00 14,8 10,7 - - 2 1 - - SSE 1028,6 19 60 0,0
29.05.2020 07:00:00 12,5 10,6 - - 5 3 - - W 1028,8 15 60 0,0
29.05.2020 06:00:00 9,8 9,4 - - 4 2 - - W 1028,8 10 24 0,0
29.05.2020 05:00:00 9,1 8,5 - - 8 4 - - W 1028,9 10 0 0,0
29.05.2020 04:00:00 9,6 8,9 - - 4 2 - - WSW 1029,0 10 0 0,0
29.05.2020 03:00:00 11,1 9,6 - - 5 3 - - SE 1029,2 12 0 0,0
29.05.2020 02:00:00 11,4 9,6 - - 8 4 - - ESE 1029,3 12 0 0,0
29.05.2020 01:00:00 11,9 10,0 - - 9 5 - - E 1029,4 10 - 0,0
29.05.2020 00:00:00 11,6 9,8 - - 5 3 - - N 1029,6 18 0 0,0
28.05.2020 23:00:00 13,3 11,0 - - 11 6 - - N 1029,4 26 0 0,0
28.05.2020 22:00:00 15,8 11,2 - - 8 4 - - NE 1029,5 10 0 0,0
28.05.2020 21:00:00 19,9 11,3 - - 4 2 - - SW 1029,3 35 0 0,0
28.05.2020 20:00:00 21,0 12,5 - - 11 6 - - SSW 1029,1 35 6 0,0
28.05.2020 19:00:00 23,1 11,1 - - 16 9 - - SSW 1029,2 35 60 0,0
28.05.2020 18:00:00 24,6 10,7 - - 13 7 - - SW 1029,5 35 42 0,0
28.05.2020 17:00:00 24,7 10,2 - - 13 7 - - W 1029,8 35 60 0,0
28.05.2020 16:00:00 23,6 9,8 - - 11 6 - - WSW 1030,3 10 54 0,0
28.05.2020 15:00:00 25,1 10,7 - - 13 7 - - WNW 1030,7 35 60 0,0
28.05.2020 14:00:00 24,1 10,7 - - 18 10 - - W 1031,2 10 60 0,0
28.05.2020 13:00:00 23,0 11,8 - - 21 11 - - WSW 1031,5 10 60 0,0
28.05.2020 12:00:00 21,6 10,4 - - 18 10 - - WSW 1031,9 35 60 0,0
28.05.2020 11:00:00 19,8 9,5 - - 18 10 - - WSW 1032,4 30 60 0,0
28.05.2020 10:00:00 18,2 9,3 12,7 10,9 18 10 - - SW 1032,7 10 54 0,0
28.05.2020 09:00:00 15,3 8,6 - - 9 5 - - SW 1033,4 27 54 0,0
28.05.2020 08:00:00 13,9 8,1 - - 2 1 - - SSE 1033,9 27 18 0,0
28.05.2020 07:00:00 11,6 7,7 - - 2 1 - - NE 1034,0 26 0 0,0
28.05.2020 06:00:00 10,7 7,5 - - 5 3 - - WNW 1034,3 10 0 0,0
28.05.2020 05:00:00 10,6 7,4 - - 8 4 - - WSW 1034,5 10 0 0,0
28.05.2020 04:00:00 10,6 8,0 - - 4 2 - - WNW 1034,9 28 0 0,0
28.05.2020 03:00:00 10,5 8,0 - - 4 2 - - NNW 1035,4 28 0 0,0
28.05.2020 02:00:00 10,5 7,5 - - 2 1 - - NNE 1035,8 28 0 0,0
28.05.2020 01:00:00 11,3 6,5 - - 8 4 - - ESE 1036,2 10 - 0,0
28.05.2020 00:00:00 11,0 6,7 - - 5 3 - - E 1036,6 29 0 0,0
27.05.2020 23:00:00 11,4 6,4 - - 8 4 - - SE 1036,9 29 0 0,0
27.05.2020 22:00:00 11,5 6,6 - - 15 8 - - SE 1037,4 10 0 0,0
27.05.2020 21:00:00 11,6 6,8 - - 15 8 - - SE 1037,4 28 0 0,0
27.05.2020 20:00:00 11,9 7,4 - - 21 11 - - ESE 1037,3 28 42 0,0
27.05.2020 19:00:00 12,9 5,9 - - 24 13 - - ESE 1037,3 30 60 0,0
27.05.2020 18:00:00 13,2 6,3 - - 26 14 - - ESE 1037,5 29 60 0,0
27.05.2020 17:00:00 14,0 5,9 - - 24 13 - - ESE 1037,9 10 60 0,0
27.05.2020 16:00:00 14,0 5,6 - - 26 14 - - ESE 1038,0 10 60 0,0
27.05.2020 15:00:00 14,1 4,1 - - 26 14 - - ESE 1038,0 10 60 0,0
27.05.2020 14:00:00 15,1 4,9 - - 26 14 - - ESE 1038,1 10 60 0,0
27.05.2020 13:00:00 15,5 5,2 - - 22 12 - - SE 1038,0 10 60 0,0
27.05.2020 12:00:00 13,9 5,1 - - 22 12 - - ESE 1038,0 30 60 0,0
27.05.2020 11:00:00 12,3 6,1 - - 16 9 - - E 1038,1 10 30 0,0
27.05.2020 10:00:00 13,0 5,8 12,4 10,7 16 9 - - E 1037,7 27 42 0,0
27.05.2020 09:00:00 12,8 5,9 - - 9 5 - - WNW 1037,4 10 12 0,0
27.05.2020 08:00:00 11,3 7,0 - - 15 8 - - SW 1036,9 29 0 0,0
27.05.2020 07:00:00 9,7 5,9 - - 15 8 - - W 1036,8 28 0 0,0
27.05.2020 06:00:00 9,1 5,8 - - 13 7 - - WSW 1036,3 28 0 0,0
27.05.2020 05:00:00 8,6 5,6 - - 13 7 - - WSW 1036,1 29 0 0,0
27.05.2020 04:00:00 8,4 5,3 - - 11 6 - - SW 1036,3 30 0 0,0
27.05.2020 03:00:00 8,1 5,0 - - 13 7 - - WSW 1036,3 30 0 0,0
27.05.2020 02:00:00 8,2 5,0 - - 16 9 - - W 1036,1 10 0 0,0
27.05.2020 01:00:00 9,2 5,5 - - 13 7 - - WSW 1036,5 10 - 0,0
27.05.2020 00:00:00 10,0 5,5 - - 5 3 - - WSW 1036,3 30 0 0,0
26.05.2020 23:00:00 12,3 6,1 - - 21 11 - - W 1036,1 10 0 0,0
26.05.2020 22:00:00 14,2 6,0 - - 18 10 - - W 1035,7 10 0 0,0
26.05.2020 21:00:00 16,3 6,9 - - 18 10 - - W 1035,2 10 30 0,0
26.05.2020 20:00:00 17,4 7,3 - - 22 12 - - WSW 1034,6 10 36 0,0
26.05.2020 19:00:00 19,2 5,6 - - 18 10 - - W 1034,1 10 54 0,0
26.05.2020 18:00:00 20,1 5,4 - - 18 10 - - WSW 1033,9 10 60 0,0
26.05.2020 17:00:00 20,1 5,8 - - 16 9 - - W 1034,0 10 42 0,0
26.05.2020 16:00:00 19,1 5,7 - - 13 7 - - WNW 1034,1 10 42 0,0
26.05.2020 15:00:00 19,1 6,4 - - 11 6 - - NW 1034,1 10 42 0,0
26.05.2020 14:00:00 18,6 6,5 - - 11 6 - - W 1034,0 30 60 0,0
26.05.2020 13:00:00 18,3 6,5 - - 16 9 - - W 1034,0 30 60 0,0
26.05.2020 12:00:00 16,8 5,5 - - 9 5 - - NNW 1033,9 35 60 0,0
26.05.2020 11:00:00 15,5 5,9 - - 11 6 - - NW 1033,9 30 60 0,0
26.05.2020 10:00:00 15,0 5,6 12,0 10,7 15 8 - - WNW 1033,6 30 60 0,0
26.05.2020 09:00:00 13,7 5,2 - - 16 9 - - W 1033,3 29 60 0,0
26.05.2020 08:00:00 13,1 7,9 - - 21 11 - - W 1032,7 30 60 0,0
26.05.2020 07:00:00 12,6 10,8 - - 15 8 - - WSW 1032,0 30 30 0,0
26.05.2020 06:00:00 11,0 9,9 - - 11 6 - - W 1031,4 26 0 0,0
26.05.2020 05:00:00 11,0 9,9 - - 15 8 - - WSW 1030,8 23 0 0,0
26.05.2020 04:00:00 12,0 10,0 - - 9 5 - - W 1030,8 27 0 0,0
26.05.2020 03:00:00 11,9 9,6 - - 13 7 - - W 1030,5 10 0 0,0
26.05.2020 02:00:00 11,4 9,2 - - 16 9 - - W 1030,4 30 0 0,0
26.05.2020 01:00:00 12,0 9,0 - - 15 8 - - WSW 1030,2 10 - 0,0
26.05.2020 00:00:00 13,3 9,0 - - 16 9 - - W 1030,3 10 0 0,0
25.05.2020 23:00:00 14,1 8,6 - - 22 12 - - W 1030,2 30 0 0,0
25.05.2020 22:00:00 14,8 8,3 - - 28 15 - - WSW 1029,7 30 0 0,0
25.05.2020 21:00:00 15,8 7,6 - - 21 11 - - W 1029,3 35 0 0,0
25.05.2020 20:00:00 15,9 5,9 - - 21 11 - - WSW 1029,1 10 0 0,0
25.05.2020 19:00:00 16,3 6,1 - - 26 14 - - SW 1028,8 35 0 0,0
25.05.2020 18:00:00 17,1 7,7 - - 29 16 - - SW 1028,9 30 30 0,0
25.05.2020 17:00:00 17,1 7,9 - - 28 15 46 25 SW 1028,9 30 0 0,0
25.05.2020 16:00:00 18,1 8,5 - - 29 16 55 30 SW 1029,3 10 36 0,0
25.05.2020 15:00:00 19,8 8,1 - - 35 19 52 28 SW 1029,3 35 18 0,0
25.05.2020 14:00:00 18,9 8,7 - - 34 18 46 25 SSW 1029,5 10 54 0,0
25.05.2020 13:00:00 18,6 7,9 - - 24 13 - - SSW 1029,8 40 24 0,0
25.05.2020 12:00:00 17,6 8,0 - - 21 11 - - SSW 1030,2 30 42 0,0
25.05.2020 11:00:00 17,3 8,2 - - 21 11 - - SW 1030,5 10 54 0,0
25.05.2020 10:00:00 16,0 10,1 11,7 10,7 15 8 - - SW 1030,9 28 60 0,0
25.05.2020 09:00:00 14,4 9,7 - - 9 5 - - WSW 1031,3 10 60 0,0
25.05.2020 08:00:00 12,2 8,5 - - 5 3 - - WSW 1031,5 29 60 0,0
25.05.2020 07:00:00 9,9 7,6 - - 8 4 - - W 1031,6 30 60 0,0
25.05.2020 06:00:00 7,5 6,4 - - 4 2 - - SW 1031,3 27 24 0,0
25.05.2020 05:00:00 7,0 5,5 - - 5 3 - - WSW 1031,2 10 0 0,0
25.05.2020 04:00:00 7,1 5,8 - - 11 6 - - W 1031,2 28 0 0,0
25.05.2020 03:00:00 7,5 6,2 - - 11 6 - - WSW 1030,8 30 0 0,0
25.05.2020 02:00:00 8,5 5,9 - - 15 8 - - W 1030,9 30 0 0,0
25.05.2020 01:00:00 9,5 6,4 - - 16 9 - - W 1030,4 10 - 0,0
25.05.2020 00:00:00 10,1 6,5 - - 18 10 - - W 1029,8 30 0 0,0
24.05.2020 23:00:00 9,6 6,1 - - 16 9 - - W 1029,8 30 0 0,0
24.05.2020 22:00:00 11,7 6,8 - - 22 12 - - WSW 1029,2 10 0 0,0
24.05.2020 21:00:00 13,7 7,8 - - 22 12 - - W 1028,6 30 48 0,0
24.05.2020 20:00:00 15,1 8,2 - - 26 14 - - W 1028,1 30 54 0,0
24.05.2020 19:00:00 16,6 7,7 - - 34 18 46 25 WNW 1027,4 10 60 0,0
24.05.2020 18:00:00 16,7 7,9 - - 34 18 57 31 W 1026,9 30 54 0,0
24.05.2020 17:00:00 16,9 7,4 - - 37 20 54 29 W 1026,3 30 36 0,0
24.05.2020 16:00:00 18,0 8,5 - - 42 23 59 32 W 1025,3 35 60 0,0
24.05.2020 15:00:00 17,1 9,3 - - 37 20 57 31 W 1024,6 10 36 0,0
24.05.2020 14:00:00 17,2 10,2 - - 37 20 52 28 W 1023,4 10 24 0,0
24.05.2020 13:00:00 15,7 9,7 - - 34 18 48 26 W 1022,6 40 0 0,0
24.05.2020 12:00:00 16,1 9,7 - - 29 16 46 25 W 1021,5 40 6 0,0
24.05.2020 11:00:00 15,6 10,2 - - 31 17 50 27 W 1020,3 10 0 0,0
24.05.2020 10:00:00 13,9 9,9 11,7 10,7 22 12 - - WSW 1019,6 10 0 0,0
24.05.2020 09:00:00 13,9 9,6 - - 31 17 - - W 1018,4 10 0 0,0
24.05.2020 08:00:00 13,4 9,5 - - 29 16 - - W 1017,3 40 6 0,0
24.05.2020 07:00:00 12,7 9,0 - - 34 18 - - WSW 1016,4 30 24 0,0
24.05.2020 06:00:00 11,1 8,6 - - 29 16 - - WSW 1015,4 30 24 0,0
24.05.2020 05:00:00 9,6 8,0 - - 26 14 - - WSW 1014,6 30 0 0,0
24.05.2020 04:00:00 9,0 7,2 - - 22 12 - - WSW 1014,2 30 0 0,0
24.05.2020 03:00:00 8,9 6,1 - - 28 15 54 29 WSW 1013,5 26 0 0,0
24.05.2020 02:00:00 10,9 4,1 - - 34 18 57 31 W 1013,2 30 0 0,0
24.05.2020 01:00:00 10,7 5,5 - - 37 20 54 29 W 1012,3 10 - 0,0
24.05.2020 00:00:00 10,4 5,8 - - 31 17 46 25 WSW 1011,9 10 0 0,0
23.05.2020 23:00:00 9,9 6,8 - - 34 18 65 35 WSW 1011,3 30 0 0,0
23.05.2020 22:00:00 10,9 6,4 - - 39 21 57 31 WSW 1010,2 30 0 0,0
23.05.2020 21:00:00 11,2 7,1 - - 41 22 65 35 WSW 1009,5 10 12 0,0
23.05.2020 20:00:00 13,0 6,8 - - 46 25 65 35 WSW 1008,7 30 36 0,0
23.05.2020 19:00:00 12,6 7,6 - - 44 24 74 40 WSW 1007,8 30 0 0,0
23.05.2020 18:00:00 13,5 6,7 - - 52 28 81 44 W 1006,5 30 24 0,0
23.05.2020 17:00:00 14,8 7,3 - - 54 29 74 40 WSW 1005,3 30 24 0,0
23.05.2020 16:00:00 14,3 7,0 - - 48 26 74 40 WSW 1004,7 40 6 0,0
23.05.2020 15:00:00 14,3 7,9 - - 52 28 81 44 WSW 1003,8 40 6 0,0
23.05.2020 14:00:00 13,5 8,0 - - 57 31 85 46 WSW 1002,7 35 18 0,0

tt = temperature
td = dewpoint
tt -20cm = temperature -20cm
tt -100cm = temperature -100cm
ff = wind speed
fx = gusts
dd = wind direction
ppp = reduced air pressure
vv = visibility
sd = sunshine duration
rr = precipitation

Next stations